Regional Weather Roundup
Issued by NWS Cleveland, OH

Home | Current Version | Previous Version | Text Only | Print | Product List | Glossary Off
Versions: 1 2 3 4 5 6 7 8 9 10 11 12 13 14 15 16 17 18 19 20 21 22 23 24 25 26 27 28 29 30 31 32 33 34 35 36 37 38 39 40 41 42 43 44 45 46 47 48 49 50

000
ASUS41 KCLE 242002
RWRCLE
OHIO REGIONAL WEATHER ROUNDUP
NATIONAL WEATHER SERVICE CLEVELAND, OH
300 PM EST FRI FEB 24 2017

NOTE: "FAIR" INDICATES FEW OR NO CLOUDS BELOW 12,000 FEET WITH NO
SIGNIFICANT WEATHER AND/OR OBSTRUCTIONS TO VISIBILITY.

OHZ001>008-015>018-024>027-034-035-043-044-242100-
   NORTHWEST OHIO

CITY           SKY/WX    TMP DP  RH WIND       PRES   REMARKS
DEFIANCE       CLOUDY    67  53  61 SW14G22   29.50S
FINDLAY        CLOUDY    73  51  46 SW23G36   29.55R
TOLEDO EXPRESS CLOUDY    70  55  59 SW16G29   29.51R
TOLEDO EXEC    CLOUDY    73  54  51 SW20G28   29.52S
LIMA           CLOUDY    71  54  54 SW14G26   29.55R
$$

OHZ009>014-019>023-028>033-038-089-242100-
   NORTHEAST OHIO

CITY           SKY/WX    TMP DP  RH WIND       PRES   REMARKS
CLE-HOPKINS    CLOUDY    76  50  40 S20G31    29.58F
CLE-LAKEFRONT  CLOUDY    75  51  43 S17G30    29.55F
CUY CO. ARPT   PTSUNNY   75  54  46 S17G30    29.58F
LORAIN-ELYRIA  MOSUNNY   73  52  47 SW16G31   29.57S
ASHTABULA      SUNNY     74  51  44 S16G25    29.60F
AKRON-CANTON   PTSUNNY   75  51  43 S22G29    29.60F
WOOSTER        MOSUNNY   72  52  49 S16G28    29.60F
MANSFIELD      CLOUDY    72  53  51 S24G35    29.58F
YOUNGSTOWN     PTSUNNY   74  51  44 S21G31    29.62F
$$

OHZ042-051>053-060>062-070>072-077>081-242100-
  SOUTHWEST OHIO

CITY           SKY/WX    TMP DP  RH WIND       PRES   REMARKS
CINC-COVINGTON PTSUNNY   77  52  41 S21G30    29.56F
CINC-LUNKEN    MOSUNNY   77  54  44 S24G32    29.56F
HAMILTON       MOSUNNY   79  53  40 SW17G26   29.55F
DAYTON         PTSUNNY   74  51  44 S21G31    29.56R
WRIGHT-PAT AFB PTSUNNY   76  52  42 S25G31    29.55F
DAYTON GENERAL MOSUNNY   76  52  43 S21G36    29.55F
WILMINGTON     MOSUNNY   74  54  49 S25G35    29.57F
$$

OHZ036-037-039>041-045>050-054>059-063>069-073>076-082>088-242100-
  CENTRAL AND SOUTHEAST OHIO

CITY           SKY/WX    TMP DP  RH WIND       PRES   REMARKS
COLUMBUS       PTSUNNY   77  52  41 SW20G30   29.59F
OSU AIRPORT    PTSUNNY   74  53  48 S23G35    29.58F
BOLTON FIELD   SUNNY     73  55  53 S22G30    29.59F
RICKENBACK AFB MOSUNNY   75  52  43 S18G24    29.58F
NEWARK         CLOUDY    76  52  43 SE21G26   29.60F
MARION         PTSUNNY   73  52  47 SW23G32   29.58S
LANCASTER      MOSUNNY   78  52  40 S17G25    29.61F
ZANESVILLE     CLOUDY    75  51  43 S20G26    29.62F
NEW PHILLY     NOT AVBL
$$




USA.gov is the U.S. government's official web portal to all federal, state and local government web resources and services.